When you browse on this site, cookies collect data to enhance your experience and personalize the content and advertising you see.
Visit our Privacy Policy to learn more. By continuing to use the site, you agree to this use of cookies and data.
  • In Germany
  • List of Countries
  • For 7 days
  • Water Temperature
  • Weather Map
  • Weather Widgets
  • user-avatar
    Login

    Hourly Weather Sidi Bu-l-Abbas

    Today, 14 December, Saturday

    Time Temperature Precipitation Wind Pressure Humidity
    00:00 +11°C° 0 mm 8 mps 722 mmHg 90%
    01:00 +11°C° 0 mm 7 mps 722 mmHg 90%
    02:00 +11°C° 0 mm 7 mps 721 mmHg 90%
    03:00 +11°C° 0 mm 7 mps 721 mmHg 90%
    04:00 +10°C° 0 mm 6 mps 721 mmHg 89%
    05:00 +10°C° 0 mm 5 mps 721 mmHg 89%
    06:00 +11°C° 0 mm 4 mps 721 mmHg 88%
    07:00 +12°C° 0 mm 4 mps 722 mmHg 83%
    08:00 +12°C° 0 mm 3 mps 722 mmHg 78%
    09:00 +13°C° 0 mm 3 mps 722 mmHg 73%
    10:00 +14°C° 0 mm 3 mps 722 mmHg 67%
    11:00 +17°C° 0 mm 4 mps 722 mmHg 61%
    12:00 +18°C° 0 mm 4 mps 722 mmHg 56%
    13:00 +18°C° 0 mm 4 mps 722 mmHg 59%
    14:00 +17°C° 0 mm 4 mps 721 mmHg 62%
    15:00 +17°C° 0 mm 4 mps 721 mmHg 65%
    16:00 +16°C° 0 mm 3 mps 721 mmHg 72%
    17:00 +15°C° 0 mm 2 mps 721 mmHg 78%
    18:00 +14°C° 0 mm 1 mps 721 mmHg 84%
    19:00 +13°C° 0 mm 1 mps 721 mmHg 85%
    20:00 +13°C° 0 mm 1 mps 721 mmHg 87%
    21:00 +13°C° 0 mm 1 mps 721 mmHg 88%
    22:00 +13°C° 0 mm 1 mps 721 mmHg 87%
    23:00 +12°C° 0 mm 1 mps 721 mmHg 87%

    Tomorrow, 15 December, Sunday

    Time Temperature Precipitation Wind Pressure Humidity
    00:00 +12°C° 0 mm 1 mps 721 mmHg 87%
    01:00 +12°C° 0 mm 1 mps 720 mmHg 87%
    02:00 +12°C° 0 mm 1 mps 720 mmHg 88%
    03:00 +11°C° 0 mm 1 mps 720 mmHg 89%
    04:00 +11°C° 0 mm 1 mps 720 mmHg 87%
    05:00 +10°C° 0 mm 0 mps 720 mmHg 84%
    06:00 +10°C° 0 mm 0 mps 719 mmHg 82%
    07:00 +12°C° 0 mm 0 mps 720 mmHg 78%
    08:00 +14°C° 0 mm 1 mps 720 mmHg 74%
    09:00 +15°C° 0 mm 1 mps 721 mmHg 70%
    10:00 +16°C° 0 mm 1 mps 720 mmHg 65%
    11:00 +18°C° 0 mm 1 mps 720 mmHg 60%
    12:00 +19°C° 0 mm 1 mps 720 mmHg 54%
    13:00 +19°C° 0 mm 1 mps 719 mmHg 55%
    14:00 +20°C° 0 mm 1 mps 719 mmHg 55%
    15:00 +19°C° 0 mm 2 mps 718 mmHg 56%
    16:00 +18°C° 0 mm 2 mps 718 mmHg 61%
    17:00 +16°C° 0 mm 1 mps 718 mmHg 66%
    18:00 +15°C° 0 mm 1 mps 717 mmHg 71%
    19:00 +15°C° 0 mm 2 mps 718 mmHg 68%
    20:00 +15°C° 0 mm 2 mps 718 mmHg 65%
    21:00 +15°C° 0 mm 2 mps 718 mmHg 62%
    22:00 +14°C° 0 mm 3 mps 717 mmHg 57%
    23:00 +14°C° 0 mm 3 mps 717 mmHg 52%

    Day after tomorrow, 16 December, Monday

    Time Temperature Precipitation Wind Pressure Humidity
    00:00 +14°C° 0 mm 4 mps 717 mmHg 47%
    01:00 +14°C° 0 mm 5 mps 716 mmHg 45%
    02:00 +14°C° 0 mm 5 mps 716 mmHg 42%
    03:00 +14°C° 0 mm 6 mps 715 mmHg 40%
    04:00 +14°C° 0 mm 7 mps 715 mmHg 38%
    05:00 +14°C° 0 mm 7 mps 714 mmHg 37%
    06:00 +13°C° 0 mm 8 mps 714 mmHg 35%
    07:00 +15°C° 0 mm 9 mps 714 mmHg 34%
    08:00 +15°C° 0 mm 9 mps 714 mmHg 32%
    09:00 +16°C° 0 mm 10 mps 714 mmHg 31%
    10:00 +17°C° 0 mm 10 mps 714 mmHg 28%
    11:00 +18°C° 0 mm 10 mps 713 mmHg 26%
    12:00 +19°C° 0 mm 10 mps 713 mmHg 23%
    13:00 +19°C° 0 mm 10 mps 712 mmHg 22%
    14:00 +21°C° 0 mm 10 mps 711 mmHg 21%
    15:00 +21°C° 0 mm 9 mps 711 mmHg 21%
    16:00 +18°C° 0 mm 9 mps 710 mmHg 21%
    17:00 +17°C° 0 mm 9 mps 710 mmHg 22%
    18:00 +16°C° 0 mm 9 mps 710 mmHg 23%
    19:00 +15°C° 0 mm 8 mps 710 mmHg 35%
    20:00 +14°C° 0 mm 7 mps 711 mmHg 47%
    21:00 +13°C° 0 mm 6 mps 711 mmHg 59%
    22:00 +12°C° 0 mm 4 mps 711 mmHg 70%
    23:00 +12°C° 0 mm 2 mps 710 mmHg 80%

    17 December, Tuesday

    Time Temperature Precipitation Wind Pressure Humidity
    00:00 +11°C° 0 mm 1 mps 710 mmHg 91%
    01:00 +11°C° 0.1 mm 1 mps 710 mmHg 91%
    02:00 +11°C° 0.1 mm 1 mps 710 mmHg 91%
    03:00 +10°C° 0.1 mm 2 mps 709 mmHg 91%
    04:00 +9°C° 0.3 mm 2 mps 709 mmHg 91%
    05:00 +9°C° 0.3 mm 2 mps 709 mmHg 92%
    06:00 +9°C° 0.3 mm 3 mps 709 mmHg 92%
    07:00 +8°C° 1.9 mm 4 mps 709 mmHg 89%
    08:00 +7°C° 1.9 mm 5 mps 709 mmHg 86%
    09:00 +7°C° 1.9 mm 6 mps 710 mmHg 84%
    10:00 +7°C° 2 mm 6 mps 710 mmHg 84%
    11:00 +6°C° 2 mm 7 mps 710 mmHg 83%
    12:00 +6°C° 2 mm 8 mps 710 mmHg 83%
    13:00 +6°C° 0.4 mm 10 mps 711 mmHg 79%
    14:00 +7°C° 0.4 mm 12 mps 711 mmHg 75%
    15:00 +6°C° 0.4 mm 15 mps 712 mmHg 71%
    16:00 +6°C° 0 mm 14 mps 712 mmHg 72%
    17:00 +6°C° 0 mm 14 mps 713 mmHg 74%
    18:00 +5°C° 0 mm 13 mps 714 mmHg 75%
    19:00 +5°C° 0.1 mm 13 mps 714 mmHg 76%
    20:00 +5°C° 0.1 mm 12 mps 715 mmHg 77%
    21:00 +6°C° 0.1 mm 11 mps 716 mmHg 78%
    22:00 +5°C° 0.1 mm 12 mps 716 mmHg 78%
    23:00 +5°C° 0.1 mm 12 mps 717 mmHg 78%

    18 December, Wednesday

    Time Temperature Precipitation Wind Pressure Humidity
    00:00 +5°C° 0.1 mm 12 mps 717 mmHg 79%
    01:00 +5°C° 0.1 mm 12 mps 717 mmHg 78%
    02:00 +5°C° 0.1 mm 12 mps 718 mmHg 76%
    03:00 +5°C° 0.1 mm 12 mps 718 mmHg 75%
    04:00 +6°C° 0 mm 11 mps 718 mmHg 76%
    05:00 +5°C° 0 mm 10 mps 718 mmHg 77%
    06:00 +5°C° 0 mm 8 mps 718 mmHg 77%
    07:00 +5°C° 0 mm 9 mps 719 mmHg 75%
    08:00 +6°C° 0 mm 9 mps 720 mmHg 73%
    09:00 +6°C° 0 mm 10 mps 720 mmHg 71%
    10:00 +7°C° 0 mm 10 mps 721 mmHg 68%
    11:00 +8°C° 0 mm 10 mps 721 mmHg 65%
    12:00 +9°C° 0 mm 11 mps 721 mmHg 63%
    13:00 +9°C° 0 mm 10 mps 721 mmHg 63%
    14:00 +10°C° 0 mm 9 mps 721 mmHg 64%
    15:00 +10°C° 0 mm 8 mps 721 mmHg 65%
    16:00 +9°C° 0 mm 6 mps 721 mmHg 66%
    17:00 +9°C° 0 mm 5 mps 721 mmHg 68%
    18:00 +9°C° 0 mm 3 mps 721 mmHg 70%
    19:00 +9°C° 0 mm 3 mps 721 mmHg 69%
    20:00 +9°C° 0 mm 3 mps 722 mmHg 67%
    21:00 +9°C° 0 mm 2 mps 722 mmHg 66%
    22:00 +9°C° 0 mm 3 mps 722 mmHg 65%
    23:00 +9°C° 0 mm 3 mps 721 mmHg 65%

    19 December, Thursday

    Time Temperature Precipitation Wind Pressure Humidity
    00:00 +9°C° 0 mm 3 mps 721 mmHg 64%
    01:00 +9°C° 0 mm 3 mps 721 mmHg 64%
    02:00 +9°C° 0 mm 3 mps 721 mmHg 63%
    03:00 +9°C° 0 mm 3 mps 721 mmHg 62%
    04:00 +9°C° 0 mm 3 mps 721 mmHg 61%
    05:00 +9°C° 0 mm 3 mps 720 mmHg 59%
    06:00 +10°C° 0 mm 3 mps 720 mmHg 57%
    07:00 +10°C° 0 mm 4 mps 721 mmHg 54%
    08:00 +11°C° 0 mm 4 mps 721 mmHg 51%
    09:00 +12°C° 0 mm 4 mps 721 mmHg 48%
    10:00 +14°C° 0 mm 5 mps 721 mmHg 44%
    11:00 +16°C° 0 mm 6 mps 721 mmHg 40%
    12:00 +19°C° 0 mm 6 mps 721 mmHg 35%
    13:00 +19°C° 0 mm 6 mps 721 mmHg 37%
    14:00 +19°C° 0 mm 6 mps 720 mmHg 39%
    15:00 +19°C° 0 mm 5 mps 720 mmHg 40%
    16:00 +18°C° 0 mm 4 mps 720 mmHg 44%
    17:00 +16°C° 0 mm 3 mps 720 mmHg 48%
    18:00 +14°C° 0 mm 3 mps 719 mmHg 51%
    19:00 +14°C° 0 mm 3 mps 719 mmHg 50%
    20:00 +14°C° 0 mm 3 mps 719 mmHg 48%
    21:00 +14°C° 0 mm 4 mps 719 mmHg 46%
    22:00 +13°C° 0 mm 4 mps 719 mmHg 45%
    23:00 +13°C° 0 mm 5 mps 718 mmHg 44%
    Show more